Location: ??????
(42.0089°N, 44.3281°E)
Time: 19:11:11
(UTC+00:00)

CENTAUR R/B - Pass Details

Date: 24 October 2021
Orbit: 728 x 1459 km, 63.4° (Epoch: 26 November)

Event Time Altitude Azimuth Distance (km) Brightness Sun altitude
Rises 16:15:07 0° 323° (NW) 4,002 6.3 -24.3°
Reaches altitude 10° 16:18:35 10° 339° (NNW) 3,168 5.5 -25.0°
Maximum altitude 16:24:15 21° 26° (NNE) 2,597 4.5 -26.0°
Enters shadow 16:25:24 21° 37° (NE) 2,658 4.5 -26.2°
